STARLINK-37172, 68395

Orbit data source: Space-Track

STARLINK-37172, 68395 is a payload satellite owned by SpaceX/Seattle (US) in SSO that was launched on Thu, 26 Mar 2026 UTC via an FALCON 9 launch vehicle from the Air Force Western Test Range (AFWTR). Payload-class satellites include a variety of spacecraft equipped with specific instruments for various scientific and technological missions. These include communications satellites like Starlink; space stations such as the ISS; scientific satellites like the Hubble; Earth observation satellites from companies like Planet Labs, Umbra, and HawkEye 360; GPS; miniature CubeSats for education and research; and military/defense satellites.

Loading next visibility...
Identifier
68395, 2026-063R
Orbit
SSO
Country
Flag of USUS
Related business
Manufacturer
SpaceX/Seattle
Mission
Operational spacecraft
Bus & Motor
STARLINK V2MO, Unknown motor
Mass
575 kg wet, ~530 kg dry
Launch date (UTC)
2026-03-26 (3 months ago)
Launch vehicle
FALCON 9
Launch site
Air Force Western Test Range (AFWTR)
Object type
Payload
Rocket body
Debris
Shape & HBR
Unknown shape, 17.7 m
Radar Cross Section
Large (>1 m²)

Expand to show TLE details & history
Last TLE update: 7 hours ago

TLE from 7 hours ago
0 STARLINK-37172
1 68395U 26063R   26165.93196380  .00010158  00000-0  31661-3 0  9992
2 68395  97.2859 308.1383 0000746  94.6318 265.5010 15.33437653 12795
Epoch: 2026-06-14T22:22Z
TLE epoch observation values (Epoch: 2026-06-14T22:22:01.672Z)
Latitude
-0.00001°
Longitude
69.40572°
Altitude
468.717 km
Speed
7.632 km/s
True Right ascension
20h 32m 33s
True Declination
0° 00' 00"
Sunlit
Object was in full shadow at epoch
Visualization orbit readout
Latitude
Unknown
Longitude
Unknown
Altitude
Unknown
Speed
Unknown
Apparent Right ascension
Unknown
Apparent Declination
Unknown
Sunlit
N/A
Visualization observer readout
Local Sidereal Time
15:44:11
Azimuth
Unknown
Elevation
Unknown
Doppler factor
Unknown
Orbital elements
Apogee altitude
463.018 km
Perigee altitude
461.998 km
Semi-major axis
6,840.645 km
Eccentricity
0.00007
Inclination
97.2859°
RAAN
308.1383°
Arg. of periapsis
94.6318°
True anomaly
265.49248°
Mean anomaly
265.501°
Eccentric anomaly
265.49674°
Mean motion
3.83617 °/min
Orbital period
93.84 mins
BSTAR
0.00031661
Loading maneuver chart data...
Computing Atmospheric mass density...
Loading historical data...
Loading historical data...
Loading historical data...
Loading historical data...
Loading historical data...
Loading historical data...
Loading historical data...

Documentation

Showing up to 5 results
|